Location: Central Coast
(33.3208°S, 151.2336°E)
Time: 21:09:20
(UTC+11:00)

Hubble Space Telescope - Visible Passes

Search period start: 22 October 2017 00:00
Search period end: 01 November 2017 00:00
Orbit: 537 x 541 km, 28.5° (Epoch: 21 October)

Date Brightness Start Highest point End Pass type
(mag) Time Alt. Az. Time Alt. Az. Time Alt. Az.
23 Oct 3.4 05:27:41 10° NNE 05:28:33 11° NNE 05:29:27 10° NE visible
24 Oct 3.2 05:16:11 10° N 05:18:16 13° NNE 05:20:21 10° NE visible
25 Oct 2.9 05:05:18 10° NNW 05:07:58 17° NNE 05:10:40 10° ENE visible
26 Oct 2.6 04:55:26 13° NNW 04:57:42 20° NNE 05:00:47 10° ENE visible
27 Oct 2.4 04:45:44 18° NNW 04:47:26 24° NNE 04:50:48 10° ENE visible
28 Oct 2.1 04:36:02 24° NNW 04:37:10 27° NNE 04:40:45 10° ENE visible
29 Oct 1.8 04:26:17 29° N 04:26:56 31° NNE 04:30:39 10° ENE visible
30 Oct 1.6 04:16:33 35° N 04:16:41 35° N 04:20:30 10° ENE visible
31 Oct 1.6 04:06:49 37° NNE 04:06:49 37° NNE 04:10:20 10° ENE visible
